Find Beidou DW 54

NORAD ID: 45344 Int'l Des: 2020-017 Owner: CNSA Country: CN Constellation: BeiDou operational
HEOCIRCULARGSO

現在のビュー

3D地球を読み込み中...

About Beidou DW 54

Beidou DW 54 (NORAD 45344) is a BeiDou constellation satellite launched Mar 9, 2020 by CNSA of CN. It operates in HEO, CIRCULAR, GSO orbit with a mass of 3060.00 kg.

Beidou DW 54について

説明を読み込み中...

次回通過

Passes for default location (London). Set your location on the main map for personalized predictions.

高度履歴

Loading altitude history...

軌道要素

1 45344U 20017A 26166.70268205 -.00000141 00000-0 00000-0 0 9998
2 45344 2.8605 47.3098 0002044 32.0684 157.6480 1.00272096 23246
Epoch: Jun 15, 2026 • Age: 14 hours

現在のステータス

高度 35777.2 km
速度 3.08 km/s
衛星直下点 1.84°N, 80.05°E
打ち上げ日 Mar 9, 2020
運用期間 6.2 years
タイプ navigation

技術仕様

分類 Payload
質量 3060.00 kg
乾燥質量 1700.00 kg
総質量 3060.00 kg
長さ 3.00 m
直径 1.70 m
スパン 18.00 m
形状 Box + 2 Pan
製造者 CAST
バスタイプ DFH-3B
フェーズステータス In Orbit
所有者/国 CNSA/CN

Most Searched